• In Hungary
  • List of Countries
  • For 7 days
  • Water Temperature
  • Satellite Maps
  • Weather Map
  • News
  • Weather Widgets
  • user-avatar
    Login

    Hourly Weather Galla

    Today, 27 May, Sunday

    Time Temperature Precipitation Wind Pressure Humidity
    00:00 +28°C° 1.3 mm 6 mps 755 mmHg 91%
    01:00 +28°C° 1.3 mm 6 mps 755 mmHg 91%
    02:00 +28°C° 1.3 mm 6 mps 754 mmHg 91%
    03:00 +28°C° 1.6 mm 6 mps 754 mmHg 91%
    04:00 +28°C° 1.6 mm 6 mps 755 mmHg 91%
    05:00 +28°C° 0 mm 5 mps 755 mmHg 92%
    06:00 +28°C° 1 mm 6 mps 755 mmHg 90%
    07:00 +29°C° 1 mm 6 mps 755 mmHg 89%
    08:00 +29°C° 1 mm 6 mps 755 mmHg 88%
    09:00 +29°C° 0.9 mm 6 mps 755 mmHg 86%
    10:00 +30°C° 0.9 mm 7 mps 756 mmHg 85%
    11:00 +32°C° 0 mm 7 mps 755 mmHg 84%
    12:00 +32°C° 0.5 mm 7 mps 755 mmHg 83%
    13:00 +32°C° 0.5 mm 7 mps 754 mmHg 82%
    14:00 +32°C° 0.5 mm 7 mps 754 mmHg 82%
    15:00 +30°C° 0.4 mm 7 mps 754 mmHg 83%
    16:00 +30°C° 0.4 mm 7 mps 754 mmHg 85%
    17:00 +29°C° 0 mm 7 mps 754 mmHg 87%
    18:00 +29°C° 0.6 mm 7 mps 755 mmHg 87%
    19:00 +29°C° 0.6 mm 7 mps 755 mmHg 88%
    20:00 +29°C° 0.6 mm 7 mps 756 mmHg 88%
    21:00 +29°C° 0.6 mm 7 mps 756 mmHg 88%
    22:00 +29°C° 0.6 mm 7 mps 756 mmHg 88%
    23:00 +28°C° 0.6 mm 8 mps 756 mmHg 88%

    Tomorrow, 28 May, Monday

    Time Temperature Precipitation Wind Pressure Humidity
    00:00 +28°C° 0.7 mm 8 mps 756 mmHg 89%
    01:00 +28°C° 0.7 mm 8 mps 756 mmHg 89%
    02:00 +28°C° 0.7 mm 8 mps 755 mmHg 89%
    03:00 +28°C° 0.9 mm 8 mps 755 mmHg 89%
    04:00 +28°C° 0.9 mm 8 mps 755 mmHg 90%
    05:00 +28°C° 0.9 mm 7 mps 756 mmHg 90%
    06:00 +28°C° 0.8 mm 7 mps 756 mmHg 89%
    07:00 +29°C° 0.8 mm 7 mps 756 mmHg 89%
    08:00 +29°C° 0.8 mm 7 mps 757 mmHg 88%
    09:00 +29°C° 0.3 mm 7 mps 756 mmHg 86%
    10:00 +31°C° 0.3 mm 8 mps 756 mmHg 84%
    11:00 +31°C° 0.3 mm 8 mps 756 mmHg 81%
    12:00 +31°C° 0.4 mm 8 mps 756 mmHg 81%
    13:00 +31°C° 0.4 mm 8 mps 755 mmHg 81%
    14:00 +31°C° 0.4 mm 8 mps 755 mmHg 80%
    15:00 +30°C° 0.3 mm 7 mps 755 mmHg 81%
    16:00 +30°C° 0.3 mm 7 mps 755 mmHg 82%
    17:00 +30°C° 0.3 mm 7 mps 755 mmHg 84%
    18:00 +29°C° 0.1 mm 7 mps 755 mmHg 84%
    19:00 +29°C° 0.1 mm 7 mps 755 mmHg 85%
    20:00 +29°C° 0.1 mm 7 mps 756 mmHg 86%
    21:00 +29°C° 0.1 mm 7 mps 756 mmHg 86%
    22:00 +29°C° 0.1 mm 8 mps 756 mmHg 85%
    23:00 +29°C° 0.1 mm 8 mps 756 mmHg 85%

    Day after tomorrow, 29 May, Tuesday

    Time Temperature Precipitation Wind Pressure Humidity
    00:00 +29°C° 0.1 mm 8 mps 756 mmHg 85%
    01:00 +29°C° 0.1 mm 8 mps 755 mmHg 85%
    02:00 +29°C° 0.1 mm 8 mps 755 mmHg 85%
    03:00 +29°C° 0 mm 8 mps 754 mmHg 85%
    04:00 +29°C° 0 mm 8 mps 754 mmHg 85%
    05:00 +29°C° 0 mm 8 mps 754 mmHg 84%
    06:00 +29°C° 0.1 mm 8 mps 755 mmHg 83%
    07:00 +31°C° 0.1 mm 8 mps 755 mmHg 81%
    08:00 +31°C° 0.1 mm 8 mps 756 mmHg 80%
    09:00 +32°C° 0.1 mm 8 mps 756 mmHg 77%
    10:00 +33°C° 0.1 mm 8 mps 755 mmHg 74%
    11:00 +33°C° 0.1 mm 8 mps 755 mmHg 71%
    12:00 +33°C° 0.1 mm 8 mps 755 mmHg 72%
    13:00 +33°C° 0.1 mm 8 mps 754 mmHg 73%
    14:00 +33°C° 0.1 mm 8 mps 754 mmHg 73%
    15:00 +32°C° 0.1 mm 8 mps 754 mmHg 76%
    16:00 +32°C° 0.1 mm 8 mps 754 mmHg 78%
    17:00 +30°C° 0.1 mm 7 mps 754 mmHg 81%
    18:00 +30°C° 0.1 mm 7 mps 755 mmHg 82%
    19:00 +30°C° 0.1 mm 7 mps 755 mmHg 83%
    20:00 +29°C° 0.1 mm 7 mps 756 mmHg 84%
    21:00 +29°C° 0.1 mm 7 mps 756 mmHg 84%
    22:00 +29°C° 0.1 mm 7 mps 756 mmHg 84%
    23:00 +29°C° 0.1 mm 7 mps 756 mmHg 85%

    30 May, Wednesday

    Time Temperature Precipitation Wind Pressure Humidity
    00:00 +29°C° 0.1 mm 8 mps 756 mmHg 84%
    01:00 +29°C° 0.1 mm 8 mps 755 mmHg 84%
    02:00 +29°C° 0.1 mm 8 mps 755 mmHg 84%
    03:00 +29°C° 0.1 mm 8 mps 754 mmHg 84%
    04:00 +29°C° 0.1 mm 8 mps 754 mmHg 84%
    05:00 +29°C° 0.1 mm 8 mps 754 mmHg 83%
    06:00 +29°C° 0.1 mm 8 mps 755 mmHg 82%
    07:00 +31°C° 0.1 mm 8 mps 755 mmHg 80%
    08:00 +31°C° 0.1 mm 8 mps 756 mmHg 79%
    09:00 +32°C° 0.1 mm 8 mps 756 mmHg 77%
    10:00 +32°C° 0.1 mm 8 mps 756 mmHg 75%
    11:00 +33°C° 0.1 mm 8 mps 756 mmHg 72%
    12:00 +33°C° 0.1 mm 8 mps 755 mmHg 73%
    13:00 +33°C° 0.1 mm 7 mps 754 mmHg 73%
    14:00 +33°C° 0.1 mm 7 mps 754 mmHg 73%
    15:00 +32°C° 0.1 mm 7 mps 754 mmHg 76%
    16:00 +30°C° 0.1 mm 7 mps 754 mmHg 79%
    17:00 +30°C° 0.1 mm 7 mps 754 mmHg 82%
    18:00 +30°C° 0.1 mm 7 mps 755 mmHg 84%
    19:00 +29°C° 0.1 mm 7 mps 755 mmHg 85%
    20:00 +29°C° 0.1 mm 7 mps 756 mmHg 87%
    21:00 +29°C° 0.2 mm 7 mps 756 mmHg 87%
    22:00 +29°C° 0.2 mm 7 mps 756 mmHg 87%
    23:00 +29°C° 0.2 mm 7 mps 756 mmHg 87%

    31 May, Thursday

    Time Temperature Precipitation Wind Pressure Humidity
    00:00 +29°C° 0.4 mm 7 mps 756 mmHg 87%
    01:00 +29°C° 0.4 mm 7 mps 755 mmHg 87%
    02:00 +29°C° 0.4 mm 7 mps 755 mmHg 87%
    03:00 +29°C° 0.8 mm 7 mps 755 mmHg 87%
    04:00 +28°C° 0.8 mm 7 mps 755 mmHg 87%
    05:00 +28°C° 0.8 mm 7 mps 755 mmHg 88%
    06:00 +29°C° 0.4 mm 7 mps 755 mmHg 87%
    07:00 +29°C° 0.4 mm 7 mps 756 mmHg 86%
    08:00 +30°C° 0.4 mm 7 mps 756 mmHg 85%
    09:00 +30°C° 0.5 mm 7 mps 756 mmHg 83%
    10:00 +32°C° 0.5 mm 7 mps 756 mmHg 81%
    11:00 +32°C° 0.5 mm 7 mps 756 mmHg 79%
    12:00 +32°C° 1.4 mm 7 mps 755 mmHg 80%
    13:00 +30°C° 1.4 mm 7 mps 755 mmHg 82%
    14:00 +30°C° 1.4 mm 7 mps 754 mmHg 83%
    15:00 +30°C° 1.3 mm 7 mps 754 mmHg 84%
    16:00 +29°C° 1.3 mm 7 mps 754 mmHg 85%
    17:00 +29°C° 1.3 mm 7 mps 754 mmHg 86%
    18:00 +29°C° 1.1 mm 6 mps 755 mmHg 87%
    19:00 +29°C° 1.1 mm 6 mps 756 mmHg 87%
    20:00 +28°C° 1.1 mm 6 mps 756 mmHg 88%
    21:00 +28°C° 1.5 mm 6 mps 756 mmHg 88%
    22:00 +28°C° 1.5 mm 6 mps 756 mmHg 88%
    23:00 +28°C° 1.5 mm 6 mps 756 mmHg 88%

    1 June, Friday

    Time Temperature Precipitation Wind Pressure Humidity
    00:00 +28°C° 1.4 mm 7 mps 756 mmHg 88%
    01:00 +28°C° 1.4 mm 7 mps 755 mmHg 88%
    02:00 +28°C° 1.4 mm 7 mps 754 mmHg 89%
    03:00 +28°C° 1.2 mm 7 mps 755 mmHg 89%
    04:00 +28°C° 1.2 mm 7 mps 755 mmHg 89%
    05:00 +28°C° 1.2 mm 7 mps 755 mmHg 89%
    06:00 +29°C° 1.3 mm 7 mps 755 mmHg 88%
    07:00 +29°C° 1.3 mm 7 mps 756 mmHg 88%
    08:00 +29°C° 1.3 mm 7 mps 757 mmHg 88%
    09:00 +29°C° 1.8 mm 6 mps 757 mmHg 88%
    10:00 +29°C° 1.8 mm 6 mps 757 mmHg 88%
    11:00 +29°C° 1.8 mm 6 mps 756 mmHg 88%
    12:00 +29°C° 1.7 mm 6 mps 756 mmHg 88%
    13:00 +29°C° 1.7 mm 6 mps 755 mmHg 88%
    14:00 +29°C° 1.7 mm 6 mps 755 mmHg 89%
    15:00 +29°C° 2 mm 6 mps 755 mmHg 89%
    16:00 +28°C° 2 mm 5 mps 755 mmHg 90%
    17:00 +28°C° 2 mm 5 mps 755 mmHg 90%
    18:00 +28°C° 1.8 mm 5 mps 755 mmHg 91%
    19:00 +28°C° 1.8 mm 5 mps 756 mmHg 91%
    20:00 +28°C° 1.8 mm 6 mps 756 mmHg 91%
    21:00 +28°C° 1.4 mm 6 mps 756 mmHg 91%
    22:00 +28°C° 1.4 mm 6 mps 756 mmHg 91%
    23:00 +28°C° 1.4 mm 6 mps 756 mmHg 91%
    Show more